This is the latest recevied weather packets stored in our database for station/object KB4RFE. If no packets are shown the sender has not sent any weather packets the latest 10 day(s).
| Time | Temp. | Humidity | Pressure | Rain* | Wind** | Luminosity | Snow |
|---|---|---|---|---|---|---|---|
| 1777854775 | 17.78° C | 60% | 1020.7 hPa | 0 mm | - | 0 W/m² | - |
| 1777854471 | 17.78° C | 62% | 1020.6 hPa | 0 mm | - | 0 W/m² | - |
| 1777854168 | 17.78° C | 61% | 1020.6 hPa | 0 mm | - | 0 W/m² | - |
| 1777853866 | 17.78° C | 61% | 1020.3 hPa | 0 mm | - | 0 W/m² | - |
| 1777853563 | 17.78° C | 60% | 1020.5 hPa | 0 mm | - | 1 W/m² | - |
| 1777853259 | 17.78° C | 62% | 1020.5 hPa | 0 mm | - | 2 W/m² | - |
| 1777852956 | 17.78° C | 61% | 1020.5 hPa | 0 mm | - | 2 W/m² | - |
| 1777852655 | 17.78° C | 60% | 1020.5 hPa | 0 mm | - | 6 W/m² | - |
| 1777852351 | 17.78° C | 60% | 1020.3 hPa | 0 mm | - | 9 W/m² | - |
| 1777852049 | 17.78° C | 60% | 1020.3 hPa | 0 mm | - | 13 W/m² | - |
| 1777851747 | 17.78° C | 59% | 1020.4 hPa | 0 mm | - | 17 W/m² | - |
| 1777851444 | 18.33° C | 60% | 1020 hPa | 0 mm | - | 23 W/m² | - |
| 1777851139 | 18.33° C | 60% | 1020.2 hPa | 0 mm | - | 26 W/m² | - |
| 1777850837 | 18.33° C | 59% | 1020.4 hPa | 0 mm | - | 29 W/m² | - |
| 1777850534 | 18.33° C | 60% | 1020.2 hPa | 0 mm | - | 31 W/m² | - |
| 1777850232 | 18.33° C | 59% | 1020.3 hPa | 0 mm | - | 36 W/m² | - |
| 1777849928 | 18.33° C | 59% | 1020.2 hPa | 0 mm | - | 35 W/m² | - |
| 1777849625 | 18.33° C | 60% | 1020.2 hPa | 0 mm | - | 35 W/m² | - |
| 1777849322 | 18.33° C | 60% | 1020 hPa | 0 mm | - | 40 W/m² | - |
| 1777849019 | 18.33° C | 60% | 1020.2 hPa | 0 mm | - | 45 W/m² | - |
| 1777848719 | 18.33° C | 60% | 1020.3 hPa | 0 mm | - | 46 W/m² | - |
| 1777848417 | 18.33° C | 60% | 1020.2 hPa | 0 mm | - | 47 W/m² | - |
| 1777848115 | 18.33° C | 60% | 1020.2 hPa | 0 mm | - | 46 W/m² | - |
| 1777847812 | 18.33° C | 59% | 1020.1 hPa | 0 mm | - | 52 W/m² | - |
| 1777847509 | 18.33° C | 58% | 1020.3 hPa | 0 mm | - | 52 W/m² | - |
* Rain latest hour (hover to see other rain measurements)
** Current wind speed in m/s (hover to see current wind gust speed)